Location: Meanaryar
(48.4161°N, 4.7315°W)
Time: 08:56:13
(UTC+00:00)

Cosmos 1092 Rocket - Pass Details

Date: 18 January 2021
Orbit: 954 x 995 km, 83.0° (Epoch: 02 March)

Event Time Altitude Azimuth Distance (km) Brightness Sun altitude
Rises 05:58:36 0° 354° (N) 3,646 6.9 -20.2°
Reaches altitude 10° 06:01:12 10° 360° (N) 2,695 6.2 -19.8°
Maximum altitude 06:07:10 50° 75° (ENE) 1,209 4.9 -18.8°
Drops below altitude 10° 06:13:06 10° 150° (SSE) 2,686 6.9 -17.8°
Sets 06:15:41 0° 155° (SSE) 3,632 7.5 -17.4°
